Simultaneous Nadir Overpasses (SNOs) Predictions

Prediction of SNOs between GOES-16 and NOAA-20 Satellite Orbit:

Table of predicted SNOs for the next 14.0 days since TLE Epoch: 6/21/2019
Index Date Time (GOES-16) GOES-16 Lat,Lon NOAA-20 Lat,Lon Distance(km) Time Diff (sec)
1 06/22/2019 18:10:32 0.00, -75.20 0.92, -71.23 453.27 80
2 06/24/2019 06:32:18 0.01, -75.20 0.31, -76.48 146.70 80
3 06/25/2019 06:10:53 0.01, -75.20 -0.74, -71.96 370.50 80
4 06/26/2019 18:32:49 -0.01, -75.22 -0.45, -77.26 232.43 80
5 06/27/2019 18:16:43 -0.01, -75.22 0.54, -72.72 285.03 80
6 06/29/2019 06:38:31 0.00, -75.24 0.63, -77.99 314.37 80
7 06/30/2019 06:17:06 -0.00, -75.24 -0.42, -73.47 202.93 80
8 07/01/2019 18:39:01 0.01, -75.26 -0.77, -78.77 400.03 80
9 07/02/2019 18:22:56 0.01, -75.27 0.22, -74.23 117.65 80
10 07/04/2019 06:44:43 -0.01, -75.28 0.94, -79.50 480.96 80
11 07/05/2019 06:23:18 -0.00, -75.29 -0.05, -74.97 37.02 80




NCC Satellite Simultaneous Nadir Overpasses (SNOs) Prediction Service
